Location: Horowhenua
(40.7500°S, 175.3333°E)
Time: 02:11:53
(UTC+00:00)

CZ-2C R/B - Pass Details

Date: 28 January 2023
Orbit: 666 x 783 km, 98.3° (Epoch: 20 March)

Event Time Altitude Azimuth Distance (km) Brightness Sun altitude
Exits shadow 15:25:18 39° 319° (NW) 1,019 2.6 -18.6°
Maximum altitude 15:26:23 46° 280° (W) 903 2.5 -18.5°
Drops below altitude 10° 15:30:51 10° 205° (SSW) 2,128 5.0 -17.9°
Sets 15:33:12 0° 199° (SSW) 3,056 6.0 -17.6°
